User: anonymous
Location: Unspecified
(0.0000°N, 0.0000°E)
Time: 06:13:26
(UTC+00:00)
Language:

ISS - Orbit

View from above orbital plane
View from above orbital plane
View from above satellite
View from above satellite

Ground track
Ground track

The orbit data is extracted from the following two-line orbital elements,

1 25544U 98067A   14114.02713817  .00091394  00000-0  15698-2 0  1416
2 25544 051.6495 008.0000 0003530 316.3405 151.0429 15.50374141882925
Epoch (UTC): 24 April 2014 00:39:04
Eccentricity: 0.0003530
inclination: 51.6495°
perigee height: 413 km
apogee height: 418 km
right ascension of ascending node: 8.0000°
argument of perigee: 316.3405°
revolutions per day: 15.50374141
mean anomaly at epoch: 151.0429°
orbit number at epoch: 88292

The dashed part of the orbit path shows where the satellite is in the earth's shadow,  

DLR